[[{"header":{"parameterUnit":"m.s-1","parameterCategory":1,"la1":30.2991,"la2":30.254,"lo1":-89.0895,"lo2":-89.0444,"dy":0.0017,"dx":0.0017,"nx":28,"ny":28,"refTime":"2025-08-28T03:00:00:Z","depth":0,"parameterNumber":2,"parameterNumberName":"U-component_of_WINDS"},"data":[0,0,0,0,0,0,0,0,0,0,0,0,0,0,0,0,0,0,0,0,0,0,0,0,0,0,0,0,0,0,0,0,0,0,0,0,0,0,0,0,0,0,0,0,0,0,0,0,0,0,0,0,0,0,0,0,0,0,-0.4488,-0.4487,0,-0.4445,-0.4445,-0.4444,-0.4406,-0.4406,-0.4405,-0.4405,-0.4362,-0.4361,-0.436,0,0,0,0,0,0,0,0,0,0,0,0,0,-0.4537,-0.4537,-0.4488,-0.4487,-0.4487,-0.4445,-0.4445,-0.4444,-0.4406,-0.4406,-0.4405,-0.4405,-0.4362,-0.4361,-0.436,0,0,0,0,0,0,0,0,0,0,0,0,0,-0.4507,-0.4536,-0.4488,-0.4463,-0.446,-0.4446,-0.4445,-0.4444,-0.4406,-0.4406,-0.4405,-0.4404,-0.4362,-0.4361,-0.436,-0.4367,0,0,-0.4357,-0.4356,0,0,0,0,0,0,0,0,-0.4509,-0.4506,-0.4467,-0.4465,-0.4462,-0.443,-0.4446,-0.4418,-0.4407,-0.4427,-0.4405,-0.4404,-0.4385,-0.4382,-0.4376,-0.4365,-0.4363,-0.4357,-0.4356,-0.4356,-0.4355,0,0,0,0,0,0,0,-0.4511,-0.4507,-0.4471,-0.4467,-0.4463,-0.4454,-0.4449,-0.4441,-0.441,-0.4425,-0.4422,-0.4418,-0.4384,-0.4377,-0.4374,-0.4362,-0.4357,-0.4356,-0.4355,-0.4355,-0.4356,-0.4356,0,0,0,0,0,0,-0.4517,-0.4509,-0.4472,-0.447,-0.4484,-0.4454,-0.4448,-0.4441,-0.441,-0.4405,-0.4418,-0.4416,-0.4379,-0.4376,-0.4373,-0.4379,-0.4356,-0.4355,-0.4354,-0.4355,-0.4356,-0.4357,0,0,0,0,0,0,-0.4518,-0.4514,-0.4474,-0.4489,-0.4483,-0.4454,-0.4446,-0.4441,-0.4434,-0.4405,-0.44,-0.4417,-0.4378,-0.4374,-0.4369,-0.4377,-0.4354,-0.4353,-0.4354,-0.4355,-0.4356,-0.4392,0,0,0,0,0,0,-0.452,-0.4515,-0.4517,-0.4489,-0.4482,-0.4471,-0.4447,-0.444,-0.4432,-0.4429,-0.4403,-0.4398,-0.4377,-0.4371,-0.4368,-0.4375,-0.4352,-0.4353,-0.4355,-0.4356,-0.439,-0.4394,-0.4398,0,0,0,0,0,-0.4522,-0.4529,-0.4517,-0.4513,-0.4484,-0.4471,-0.4468,-0.4444,-0.4433,-0.4435,-0.4417,-0.4398,-0.4377,-0.437,-0.4367,-0.4374,-0.4353,-0.4354,-0.4356,-0.4388,-0.4393,-0.4398,0,0,0,0,0,0,-0.4558,-0.4525,-0.4512,-0.451,-0.4494,-0.4465,-0.4467,-0.445,-0.4437,-0.4435,-0.4407,-0.4401,-0.4399,-0.4386,-0.4379,-0.4379,-0.4362,-0.4363,-0.4388,-0.4393,-0.4397,-0.44,-0.4351,0,0,0,0,0,-0.4566,-0.4558,-0.4529,-0.453,-0.4523,-0.4497,-0.449,-0.4473,-0.4456,-0.4449,-0.443,-0.4414,-0.4404,-0.4397,-0.4386,-0.4388,-0.4382,-0.4391,-0.4395,-0.4398,-0.4399,-0.44,-0.4404,-0.4362,-0.4362,-0.4362,0,0,-0.4582,-0.4563,-0.456,-0.4537,-0.4523,-0.4516,-0.4491,-0.4484,-0.4479,-0.4448,-0.4442,-0.4428,-0.4408,-0.4406,-0.4404,-0.4395,-0.441,-0.44,-0.4403,-0.4402,-0.4402,-0.4406,-0.441,-0.4363,-0.4363,-0.4362,0,0,-0.4608,-0.4593,-0.4592,-0.4578,-0.4557,-0.4539,-0.4539,-0.4513,-0.4503,-0.4496,-0.4473,-0.4466,-0.4448,-0.4435,-0.4426,-0.4448,-0.4431,-0.4445,-0.4465,-0.4466,-0.4469,-0.4472,-0.4481,-0.4484,-0.4446,-0.4446,-0.4446,0,-0.4631,-0.4619,-0.4594,-0.4589,-0.458,-0.4551,-0.4551,-0.4539,-0.4515,-0.451,-0.45,-0.4477,-0.4462,-0.4457,-0.4462,-0.4456,-0.4455,-0.4448,-0.4471,-0.4474,-0.4476,-0.4483,-0.4487,-0.4448,-0.4448,-0.4448,-0.4447,0,-0.4649,-0.4641,-0.4643,-0.4621,-0.4612,-0.461,-0.4584,-0.4578,-0.4563,-0.4546,-0.454,-0.4521,-0.4505,-0.4503,-0.4487,-0.4496,-0.4491,-0.4476,-0.4459,-0.4482,-0.4489,-0.4492,-0.4451,-0.445,-0.4449,-0.4449,0,0,-0.4697,-0.4661,-0.4662,-0.4652,-0.4627,-0.462,-0.4617,-0.4601,-0.4597,-0.4582,-0.4578,-0.4564,-0.4551,-0.4541,-0.4523,-0.4524,-0.4543,-0.4509,-0.4508,-0.4517,-0.4552,-0.4564,-0.4568,-0.4531,-0.4532,-0.4532,-0.4554,0,-0.472,-0.4711,-0.4688,-0.4687,-0.468,-0.4653,-0.4649,-0.4634,-0.4618,-0.461,-0.4593,-0.4583,-0.4566,-0.456,-0.4559,-0.4541,-0.455,-0.4539,-0.4529,-0.4528,-0.4535,-0.4571,-0.4584,-0.4605,-0.4557,-0.4557,-0.4557,0,-0.4745,-0.4731,-0.4729,-0.4705,-0.4701,-0.4698,-0.4683,-0.4675,-0.4657,-0.4645,-0.4634,-0.4615,-0.461,-0.4593,-0.4586,-0.4579,-0.4573,-0.4564,-0.4564,-0.4563,-0.4545,-0.4572,-0.4612,-0.4615,-0.4561,-0.4561,-0.4561,0,-0.4781,-0.4762,-0.4759,-0.4751,-0.4722,-0.4721,-0.4709,-0.469,-0.4682,-0.4669,-0.4664,-0.465,-0.4642,-0.4632,-0.461,-0.4599,-0.4605,-0.4586,-0.4596,-0.4597,-0.4599,-0.46,-0.464,-0.4594,-0.4594,-0.4594,-0.4594,0,-0.4809,-0.4809,-0.4775,-0.4773,-0.4772,-0.4746,-0.4746,-0.4731,-0.4715,-0.471,-0.4685,-0.4681,-0.4651,-0.4644,-0.4626,-0.4623,-0.462,-0.4611,-0.4607,-0.4614,-0.4615,-0.461,-0.4608,-0.4595,-0.4595,-0.4595,-0.4595,0,-0.485,-0.4827,-0.4822,-0.4794,-0.4788,-0.4789,-0.4765,-0.4763,-0.4746,-0.4739,-0.4736,-0.471,-0.47,-0.4676,-0.466,-0.4648,-0.465,-0.4641,-0.4656,-0.4654,-0.4665,-0.4665,-0.4704,-0.4708,-0.466,-0.466,-0.4661,0,-0.487,-0.4869,-0.4842,-0.4837,-0.4826,-0.4818,-0.481,-0.4784,-0.4777,-0.4756,-0.4756,-0.4744,-0.4733,-0.4718,-0.4697,-0.4685,-0.4676,-0.4691,-0.4674,-0.4681,-0.4677,-0.4678,-0.4678,-0.4695,-0.4695,-0.4696,-0.4696,0,-0.4908,-0.4896,-0.4886,-0.4872,-0.4864,-0.4851,-0.4838,-0.4835,-0.4806,-0.4799,-0.4788,-0.478,-0.4763,-0.4752,-0.4736,-0.4723,-0.4705,-0.4702,-0.4703,-0.4711,-0.472,-0.4716,-0.4667,-0.4701,-0.4701,-0.47,-0.47,-0.47,-0.4939,-0.4938,-0.4919,-0.4908,-0.4895,-0.4883,-0.4879,-0.4862,-0.4852,-0.4837,-0.4822,-0.4813,-0.4795,-0.4772,-0.476,-0.4753,-0.4744,-0.4746,-0.4747,-0.4748,-0.4752,-0.4721,-0.475,-0.475,-0.475,-0.475,-0.4749,0,-0.4977,-0.4963,-0.4953,-0.4935,-0.4927,-0.491,-0.4894,-0.4889,-0.4881,-0.4866,-0.4855,-0.4843,-0.4832,-0.4811,-0.4798,-0.4796,-0.4787,-0.4793,-0.4794,-0.4791,-0.476,-0.476,-0.4801,-0.4801,-0.4801,-0.4801,-0.4801,-0.4801,-0.4995,-0.4992,-0.4978,-0.4969,-0.4955,-0.4946,-0.4938,-0.4927,-0.4915,-0.4902,-0.4893,-0.4879,-0.4861,-0.4846,-0.4835,-0.4829,-0.4826,-0.4835,-0.4827,-0.4798,-0.4793,-0.4789,-0.4789,-0.4834,-0.4834,-0.4858,-0.4858,-0.4859]},{"header":{"parameterUnit":"m.s-1","parameterCategory":1,"la1":30.2991,"la2":30.254,"lo1":-89.0895,"lo2":-89.0444,"dy":0.0017,"dx":0.0017,"nx":28,"ny":28,"refTime":"2025-08-28T03:00:00:Z","depth":0,"parameterNumber":3,"parameterNumberName":"V-component_of_WINDS"},"data":[0,0,0,0,0,0,0,0,0,0,0,0,0,0,0,0,0,0,0,0,0,0,0,0,0,0,0,0,0,0,0,0,0,0,0,0,0,0,0,0,0,0,0,0,0,0,0,0,0,0,0,0,0,0,0,0,0,0,3.5173,3.5172,0,3.5055,3.5054,3.5053,3.494,3.4939,3.4937,3.4936,3.481,3.4808,3.4806,0,0,0,0,0,0,0,0,0,0,0,0,0,3.5297,3.5295,3.5173,3.5172,3.5171,3.5056,3.5054,3.5052,3.494,3.4939,3.4937,3.4935,3.4811,3.4808,3.4806,0,0,0,0,0,0,0,0,0,0,0,0,0,3.5218,3.5295,3.5174,3.5101,3.5093,3.5056,3.5054,3.5052,3.4941,3.4939,3.4936,3.4934,3.4812,3.4809,3.4806,3.4829,0,0,3.4796,3.4795,0,0,0,0,0,0,0,0,3.5222,3.5213,3.5113,3.5106,3.5097,3.501,3.5051,3.4977,3.4941,3.4998,3.4936,3.4933,3.4878,3.487,3.4852,3.4824,3.4818,3.4796,3.4794,3.4793,3.4792,0,0,0,0,0,0,0,3.5228,3.5217,3.5126,3.5112,3.5102,3.5072,3.5059,3.5037,3.4951,3.4993,3.4985,3.4973,3.4873,3.4855,3.4848,3.4816,3.4796,3.4794,3.4792,3.479,3.4799,3.4801,0,0,0,0,0,0,3.5245,3.5223,3.513,3.5123,3.5156,3.5072,3.5057,3.504,3.4951,3.4936,3.4975,3.4968,3.4861,3.4852,3.4843,3.4863,3.4793,3.479,3.4788,3.4797,3.4799,3.4801,0,0,0,0,0,0,3.5248,3.5238,3.5135,3.5171,3.5155,3.5072,3.5055,3.5039,3.5021,3.4937,3.4921,3.4972,3.4859,3.4848,3.4833,3.4857,3.4789,3.4786,3.4794,3.4797,3.48,3.4904,0,0,0,0,0,0,3.5252,3.524,3.5249,3.5172,3.5154,3.5129,3.5056,3.5038,3.5016,3.5006,3.4931,3.4916,3.4857,3.4839,3.4831,3.4852,3.4784,3.4792,3.4796,3.4799,3.4898,3.4911,3.4921,0,0,0,0,0,3.5257,3.5283,3.525,3.524,3.5164,3.5131,3.512,3.5053,3.5019,3.5026,3.4973,3.4918,3.4857,3.4838,3.4828,3.4849,3.479,3.4794,3.4799,3.4893,3.4908,3.4921,0,0,0,0,0,0,3.5363,3.5271,3.5234,3.5236,3.5192,3.5112,3.5119,3.5071,3.5035,3.5027,3.4944,3.4928,3.4923,3.4884,3.4866,3.4866,3.4815,3.4818,3.4891,3.4904,3.4915,3.4924,3.4781,0,0,0,0,0,3.5388,3.537,3.5289,3.5298,3.5279,3.5204,3.5186,3.5138,3.5089,3.507,3.5015,3.4968,3.4937,3.4919,3.4887,3.4893,3.4873,3.4902,3.4914,3.4923,3.4926,3.4924,3.4935,3.4816,3.4816,3.4816,0,0,3.5436,3.5383,3.5377,3.5318,3.5279,3.526,3.5188,3.5172,3.5157,3.5066,3.5049,3.5008,3.495,3.4946,3.4941,3.4914,3.4955,3.4929,3.4938,3.4935,3.493,3.4941,3.4951,3.4819,3.4819,3.4818,0,0,3.5515,3.5475,3.5476,3.5439,3.538,3.533,3.5331,3.5258,3.5227,3.5209,3.5141,3.5121,3.5071,3.5031,3.5005,3.5069,3.5017,3.5061,3.5119,3.5118,3.5128,3.5135,3.5156,3.5164,3.5064,3.5065,3.5065,0,3.5582,3.5553,3.5483,3.5471,3.5446,3.5366,3.5366,3.5332,3.5266,3.525,3.5221,3.5155,3.5111,3.5095,3.5111,3.5093,3.5089,3.5068,3.5132,3.5139,3.5146,3.5164,3.5172,3.507,3.5069,3.5069,3.5068,0,3.5637,3.5618,3.5627,3.5566,3.5542,3.5537,3.5464,3.5449,3.5403,3.5356,3.5337,3.5281,3.5235,3.5228,3.5183,3.5206,3.519,3.5148,3.5095,3.5164,3.5179,3.5186,3.5078,3.5076,3.5074,3.5073,0,0,3.5778,3.5679,3.5683,3.5654,3.5584,3.5567,3.5557,3.5513,3.55,3.5457,3.5445,3.5405,3.5365,3.5335,3.5285,3.5285,3.5336,3.5242,3.5239,3.5259,3.5355,3.5385,3.5395,3.5302,3.5303,3.5304,3.5359,0,3.5843,3.5821,3.5758,3.5755,3.5735,3.5658,3.5649,3.5604,3.5559,3.5534,3.5484,3.5456,3.5407,3.5388,3.5385,3.5331,3.5354,3.5326,3.5287,3.5286,3.5302,3.5403,3.5435,3.549,3.5365,3.5366,3.5366,0,3.5915,3.5878,3.5874,3.5803,3.5792,3.5786,3.574,3.5718,3.5665,3.5632,3.5599,3.5544,3.5527,3.548,3.5454,3.5437,3.5417,3.5388,3.5388,3.538,3.5329,3.5395,3.5506,3.5513,3.5376,3.5375,3.5374,0,3.6015,3.5964,3.5954,3.5932,3.5851,3.5847,3.5813,3.5757,3.5735,3.5695,3.5679,3.5637,3.5613,3.5581,3.5515,3.5488,3.5495,3.5444,3.5465,3.5467,3.5468,3.5469,3.5575,3.5461,3.546,3.546,3.546,0,3.6093,3.6092,3.5998,3.5992,3.5988,3.5916,3.5914,3.5872,3.5823,3.5806,3.5737,3.5722,3.5637,3.5611,3.5559,3.5544,3.5535,3.5506,3.5491,3.5511,3.5514,3.5495,3.5488,3.5462,3.5462,3.5461,3.5461,0,3.6203,3.614,3.6124,3.6049,3.6029,3.603,3.5964,3.5954,3.5906,3.5885,3.5875,3.5799,3.5765,3.5697,3.5644,3.5609,3.5605,3.5581,3.5623,3.5614,3.5639,3.5636,3.5734,3.5742,3.5626,3.5627,3.5628,0,3.6255,3.6253,3.6178,3.6162,3.6131,3.6106,3.6083,3.6011,3.5989,3.5928,3.5925,3.5887,3.5851,3.5801,3.5739,3.5698,3.5671,3.5708,3.5664,3.5683,3.5668,3.5668,3.5667,3.5717,3.5719,3.572,3.5721,0,3.6354,3.6323,3.6293,3.6253,3.6227,3.6192,3.6152,3.6142,3.6061,3.604,3.6005,3.5978,3.5925,3.5886,3.5836,3.5798,3.5745,3.5736,3.5738,3.5757,3.578,3.5765,3.5647,3.5733,3.5732,3.5731,3.5731,3.573,3.6435,3.6429,3.6375,3.6343,3.6306,3.6271,3.6257,3.6208,3.6178,3.613,3.6089,3.6058,3.6003,3.593,3.5895,3.5868,3.5843,3.5847,3.5847,3.5849,3.5856,3.5787,3.5859,3.5859,3.5858,3.5858,3.5857,0,3.6528,3.6489,3.6462,3.6409,3.6384,3.6339,3.6293,3.6274,3.6248,3.6202,3.6169,3.6129,3.6091,3.6027,3.5983,3.5974,3.5948,3.5964,3.5963,3.5955,3.5882,3.5884,3.5985,3.5985,3.5985,3.5985,3.5985,3.5985,3.6573,3.656,3.6523,3.649,3.645,3.642,3.6398,3.6364,3.6326,3.6285,3.6254,3.6213,3.6159,3.6111,3.6073,3.6055,3.6041,3.6065,3.6039,3.5972,3.596,3.5948,3.5949,3.6063,3.6063,3.6113,3.6113,3.6114]}]]